Regional Weather Roundup
Issued by NWS

Home | Current Version | Previous Version | Text Only | Print | Product List | Glossary On
Versions: 1 2 3 4 5 6 7 8 9 10 11 12 13 14 15 16 17 18 19 20 21 22 23 24 25 26 27
000
ASUS44 KBMX 202210
RWRAL

ALABAMA REGIONAL WEATHER ROUNDUP
NATIONAL WEATHER SERVICE BIRMINGHAM AL
500 PM CDT THU JUL 20 2017

NOTE: "FAIR" INDICATES FEW OR NO CLOUDS BELOW 12,000 FEET
WITH NO SIGNIFICANT WEATHER AND/OR OBSTRUCTIONS TO VISIBILITY.

THE REMARK "TC" DENOTES TEMPERATURE IN DEGREES CELSIUS.

ALZ001>011-014-016>018-020-202300-
NORTH ALABAMA

CITY           SKY/WX    TMP DP  RH WIND       PRES   REMARKS
MUSCLE SHOALS  MOSUNNY   97  69  40 NW5       30.06F HX 103
HUNTSVILLE     PTSUNNY   97  71  42 NW9       30.04F HX 104
DECATUR        MOSUNNY   93  74  53 NW8       30.04F HX 103
HALEYVILLE     NOT AVBL
GADSDEN        CLOUDY    88  76  67 SW6       30.05F HX  99
$$

ALZ012-013-022-023-030>036-040>044-202300-
WEST CENTRAL ALABAMA

CITY           SKY/WX    TMP DP  RH WIND       PRES   REMARKS
TUSCALOOSA     PTSUNNY   94  73  50 NW3       30.02F HX 103
DEMOPOLIS        N/A     94  70  44 NE5       30.02F HX 100
$$

ALZ015-024>026-033>036-041>044-202300-
CENTRAL ALABAMA

CITY           SKY/WX    TMP DP  RH WIND       PRES   REMARKS
BIRMINGHAM     PTSUNNY   88  72  58 SE5       30.08F HX  94
MONTGOMERY     CLOUDY    93  69  45 N6        30.02S HX  98
SHELBY CO ARPT PTSUNNY   83  74  74 E3        30.07S
MAXWELL AFB    CLOUDY    90  75  60 N9        30.01F HX 100
GREENVILLE     FAIR      93  69  45 N6        30.03S HX  98
SELMA          FAIR      91  70  49 N7        30.01F HX  97
PRATTVILLE     FAIR      88  77  69 CALM      30.02S HX  99
BESSEMER       FAIR      86  77  74 E7        30.07F HX  97
TALLADEGA      FAIR      82  75  78 CALM      30.07S
PELL CITY      CLEAR     81  77  89 CALM      30.07S
MARION         FAIR      91  76  61 MISG      30.02F HX 102
SYLACAUGA      FAIR      82  73  76 CALM      30.07F
$$

ALZ019-021-028-029-037-038-045>048-202300-
EAST CENTRAL ALABAMA

CITY           SKY/WX    TMP DP  RH WIND       PRES   REMARKS
ANNISTON       MOSUNNY   84  74  71 SW5       30.06F HX  91
ALEXANDER CITY CLOUDY    81  75  84 E5        30.06F
AUBURN         PTSUNNY   78  72  81 W12G21    30.07S
$$

ALZ051>064-202300-
SOUTHWEST ALABAMA

CITY           SKY/WX    TMP DP  RH WIND       PRES   REMARKS
MOBILE         PTSUNNY   93  72  50 N7        30.02F HX 101
BROOKLEY FIELD MOSUNNY   96  73  47 NE6       30.01F HX 105
EVERGREEN      SUNNY     94  74  52 N3        30.02S HX 104
$$

ALZ049-050-065>069-202300-
SOUTHEAST ALABAMA

CITY           SKY/WX    TMP DP  RH WIND       PRES   REMARKS
DOTHAN         SUNNY     94  72  48 NW6       30.03F HX 102
OZARK          SUNNY     94  69  44 NW8       30.00S HX  99
TROY           SUNNY     95  71  45 N9        30.02F HX 102
EUFAULA        FAIR      96  72  45 CALM      29.98F HX 104
$$




USA.gov is the U.S. government's official web portal to all federal, state and local government web resources and services.